STARLINK-5366, 55499

Orbit data source: Space-Track

STARLINK-5366, 55499 is a payload satellite owned by SpaceX/Seattle (US) in LEO that was launched on Thu, 02 Feb 2023 UTC via an FALCON 9 launch vehicle from the Air Force Eastern Test Range (AFETR). Payload-class satellites include a variety of spacecraft equipped with specific instruments for various scientific and technological missions. These include communications satellites like Starlink; space stations such as the ISS; scientific satellites like the Hubble; Earth observation satellites from companies like Planet Labs, Umbra, and HawkEye 360; GPS; miniature CubeSats for education and research; and military/defense satellites.

Loading next visibility...
Identifier
55499, 2023-015BC
Orbit
LEO
Country
Flag of USUS
Related business
Manufacturer
SpaceX/Seattle
Mission
Operational Commercial Communications
Bus & Motor
STARLINK, Unknown motor
Mass
305 kg wet, ~290 kg dry
Launch date (UTC)
2023-02-02 (3 years ago)
Launch vehicle
FALCON 9
Launch site
Air Force Eastern Test Range (AFETR)
Object type
Payload
Rocket body
Debris
Shape & HBR
Box + 1 Pan, 10.1 m
Radar Cross Section
13.562 m², Large (>1 m²)

Expand to show TLE details & history
Last TLE update: 1 day ago

TLE from 1 day ago
0 STARLINK-5366
1 55499U 23015BC  25287.66206839 -.00000160  00000-0  32009-5 0  9994
2 55499  42.9980  51.9265 0000820 289.8370  70.2384 15.02533813149392
Epoch: 2025-10-14T15:53Z
TLE epoch observation values (Epoch: 2025-10-14T15:53:22.708Z)
Latitude
-0.00002°
Longitude
150.13457°
Altitude
558.672 km
Speed
7.584 km/s
True Right ascension
03h 27m 42s
True Declination
0° 00' 00"
Sunlit
Object was in full shadow at epoch
Visualization orbit readout
Latitude
Unknown
Longitude
Unknown
Altitude
Unknown
Speed
Unknown
Apparent Right ascension
Unknown
Apparent Declination
Unknown
Sunlit
N/A
Visualization observer readout
Local Sidereal Time
18:46:49
Azimuth
Unknown
Elevation
Unknown
Doppler factor
Unknown
Orbital elements
Apogee altitude
561.58 km
Perigee altitude
560.442 km
Semi-major axis
6,939.148 km
Eccentricity
0.00008
Inclination
42.998°
RAAN
51.9265°
Arg. of periapsis
289.837°
True anomaly
70.24724°
Mean anomaly
70.2384°
Eccentric anomaly
70.24282°
Mean motion
3.75478 °/min
Orbital period
95.88 mins
BSTAR
0.0000032009
Loading maneuver chart data...
Computing Atmospheric mass density...
Loading historical data...
Loading historical data...
Loading historical data...
Loading historical data...
Loading historical data...
Loading historical data...
Loading historical data...

Documentation

Showing up to 5 results
|